Stations météo

Publicité
Boulogne, France (7002): Température de l'air & dewpoint: 12.02.2020 07:00:00 - 18.02.2020 07:00:00 (CET)Boulogne, France (7002): Vitesse du vent & gusts: 12.02.2020 07:00:00 - 18.02.2020 07:00:00 (CET)Boulogne, France (7002): Direction du vent: 12.02.2020 07:00:00 - 18.02.2020 07:00:00 (CET)Boulogne, France (7002): reduced air pressure: 12.02.2020 07:00:00 - 18.02.2020 07:00:00 (CET)Boulogne, France (7002): visibility: 12.02.2020 07:00:00 - 18.02.2020 07:00:00 (CET)Boulogne, France (7002): Quantités de précipitations: 12.02.2020 07:00:00 - 18.02.2020 07:00:00 (CET)
Date & Time tt [°C] td [°C] ff [km/h] ff [knt] fx [km/h] fx [knt] dd ppp [hPa] vv [km] rr [mm]
18.02.2020 07:00:00 - - - - - - - - - -
18.02.2020 06:00:00 7,6 3,1 36 20 62 34 W 1021,6 - 0,0
18.02.2020 05:00:00 7,7 3,5 39 21 65 35 W 1021,6 - 0,0
18.02.2020 04:00:00 7,8 3,3 42 23 68 37 W 1021,5 - 0,0
18.02.2020 03:00:00 7,7 3,0 37 20 66 36 W 1021,5 - 0,0
18.02.2020 02:00:00 7,5 2,4 48 26 74 40 W 1020,8 - 0,0
18.02.2020 01:00:00 7,7 2,6 45 24 77 42 W 1020,3 - 0,0
18.02.2020 00:00:00 7,8 3,1 47 25 74 40 W 1019,3 - 0,0
17.02.2020 23:00:00 8,1 3,5 46 25 86 47 W 1018,5 - 0,0
17.02.2020 22:00:00 8,4 4,8 40 22 69 37 WSW 1017,6 - 0,0
17.02.2020 21:00:00 8,5 5,6 41 22 81 44 WSW 1017,0 - 0,0
17.02.2020 20:00:00 8,8 5,5 41 22 75 41 WSW 1016,3 - 0,0
17.02.2020 19:00:00 8,8 5,5 46 25 79 43 WSW 1015,4 - 0,0
17.02.2020 18:00:00 7,7 4,8 41 22 78 42 WSW 1014,1 - 0,2
17.02.2020 17:00:00 8,9 6,0 44 24 83 45 WSW 1013,4 - 0,0
17.02.2020 16:00:00 8,4 6,4 45 24 86 46 WSW 1012,4 - 0,2
17.02.2020 15:00:00 8,0 5,3 62 33 96 52 SW 1012,0 - 0,2
17.02.2020 14:00:00 8,5 5,6 42 23 78 42 SW 1012,0 - 0,0
17.02.2020 13:00:00 8,3 4,3 44 24 77 42 SW 1012,3 - 0,0
17.02.2020 12:00:00 8,2 4,0 49 27 102 55 SW 1012,2 - 0,0
17.02.2020 11:00:00 8,6 5,5 42 23 78 42 SW 1011,6 - 0,0
17.02.2020 10:00:00 8,3 5,2 37 20 74 40 SW 1011,0 10 0,0
17.02.2020 09:00:00 8,0 5,3 33 18 66 36 SSW 1010,6 - 0,0
17.02.2020 08:00:00 7,5 5,1 29 16 64 35 SSW 1010,4 - 0,0
17.02.2020 07:00:00 8,0 5,1 37 20 67 36 SW 1010,4 10 0,0
17.02.2020 06:00:00 8,3 5,2 38 20 63 34 SW 1010,7 - 0,0
17.02.2020 05:00:00 8,2 5,0 39 21 67 36 SW 1010,7 - 0,0
17.02.2020 04:00:00 7,4 3,8 51 28 83 45 WSW 1010,8 - 0,0
17.02.2020 03:00:00 8,9 2,9 50 27 78 42 WSW 1010,7 - 0,0
17.02.2020 02:00:00 8,6 3,0 49 27 83 45 WSW 1010,3 - 0,0
17.02.2020 01:00:00 8,6 1,3 59 32 108 58 W 1009,2 - 0,2
17.02.2020 00:00:00 7,7 3,9 60 32 107 58 WSW 1007,7 - 0,0
16.02.2020 23:00:00 9,1 4,9 54 29 93 50 WSW 1006,4 - 0,0
16.02.2020 22:00:00 9,1 5,8 53 29 83 45 WSW 1005,0 6 0,0
16.02.2020 21:00:00 8,8 7,1 45 24 79 43 SW 1004,0 - 0,0
16.02.2020 20:00:00 8,6 7,1 42 23 64 35 SW 1003,6 - 0,0
16.02.2020 19:00:00 8,0 6,6 37 20 64 35 SW 1002,3 - 0,4
16.02.2020 18:00:00 7,2 6,3 33 18 74 40 WSW 1001,5 - 3,1
16.02.2020 17:00:00 6,9 5,2 55 30 85 46 W 1000,2 - 1,0
16.02.2020 16:00:00 8,6 7,8 53 28 104 56 W 997,1 - 1,2
16.02.2020 15:00:00 13,6 10,2 56 31 101 55 SSW 994,9 - 0,0
16.02.2020 14:00:00 12,4 10,6 48 26 99 54 SSW 995,7 - 0,2
16.02.2020 13:00:00 11,7 11,2 49 26 93 50 S 996,6 4,0 0,6
16.02.2020 12:00:00 11,7 11,4 51 27 89 48 S 997,4 - 0,6
16.02.2020 11:00:00 11,6 11,1 45 24 94 51 S 998,8 - 0,8
16.02.2020 10:00:00 12,1 10,5 45 24 97 53 SSW 998,9 5 0,2
16.02.2020 09:00:00 12,5 10,2 48 26 97 53 SSW 998,6 - 0,0
16.02.2020 08:00:00 12,1 9,8 49 26 91 49 S 998,9 - 0,2
16.02.2020 07:00:00 11,4 10,3 47 26 96 52 S 999,2 - 0,4
16.02.2020 06:00:00 11,3 10,2 46 25 96 52 S 999,7 - 0,9
16.02.2020 05:00:00 11,2 10,3 45 24 94 51 S 1000,7 - 2,2
16.02.2020 04:00:00 11,3 10,2 46 25 96 52 S 1001,6 6 1,4
16.02.2020 03:00:00 11,0 10,1 41 22 87 47 S 1003,0 - 1,6
16.02.2020 02:00:00 11,2 9,6 42 23 87 47 S 1003,8 - 0,6
16.02.2020 01:00:00 11,9 8,9 46 25 88 47 S 1004,3 6 0,0
16.02.2020 00:00:00 11,7 8,7 46 25 93 50 S 1004,6 - 0,0
15.02.2020 23:00:00 11,6 8,8 45 24 89 48 S 1005,0 - 0,0
15.02.2020 22:00:00 11,5 8,7 47 25 95 52 S 1005,3 6 0,0
15.02.2020 21:00:00 11,7 8,2 49 26 96 52 S 1005,6 - 0,0
15.02.2020 20:00:00 12,0 7,7 48 26 96 52 S 1006,3 - 0,0
15.02.2020 19:00:00 11,4 8,3 51 28 94 51 S 1006,5 - 0,2
15.02.2020 18:00:00 10,6 8,5 39 21 88 47 S 1008,2 - 1,0
15.02.2020 17:00:00 12,2 7,5 45 24 85 46 S 1008,8 - 0,0
15.02.2020 16:00:00 11,9 7,6 39 21 72 39 S 1009,4 9 0,0
15.02.2020 15:00:00 11,9 7,8 37 20 80 43 S 1010,6 - 0,0
15.02.2020 14:00:00 12,0 8,1 40 21 77 42 S 1011,3 - 0,0
15.02.2020 13:00:00 11,6 8,1 41 22 81 44 S 1012,7 9 0,0
15.02.2020 12:00:00 11,3 8,0 37 20 77 42 S 1013,5 - 0,0
15.02.2020 11:00:00 11,0 7,9 37 20 68 37 S 1014,5 - 0,0
15.02.2020 10:00:00 10,2 7,8 32 18 66 35 S 1014,8 9 0,0
15.02.2020 09:00:00 9,9 7,7 34 18 56 30 S 1015,8 - 0,0
15.02.2020 08:00:00 9,8 7,4 32 18 58 31 S 1016,0 - 0,0
15.02.2020 07:00:00 9,4 7,2 25 13 52 28 S 1016,6 8 0,0
15.02.2020 06:00:00 9,4 7,0 27 15 62 33 S 1017,1 - 0,0
15.02.2020 05:00:00 9,3 6,7 29 16 58 31 S 1017,3 - 0,0
15.02.2020 04:00:00 9,7 6,8 30 16 53 29 SSW 1017,8 - 0,0
15.02.2020 03:00:00 9,6 6,7 30 16 54 29 SSW 1018,2 - 0,0
15.02.2020 02:00:00 9,4 6,1 27 15 51 28 S 1018,6 - 0,0
15.02.2020 01:00:00 9,3 6,2 26 14 60 33 SSW 1019,2 7 0,0
15.02.2020 00:00:00 9,5 6,0 28 15 54 29 S 1019,5 - 0,0
14.02.2020 23:00:00 9,5 5,9 27 15 52 28 S 1019,7 - 0,0
14.02.2020 22:00:00 9,5 5,9 25 14 48 26 S 1020,2 7 0,0
14.02.2020 21:00:00 9,7 5,9 26 14 44 24 S 1020,4 - 0,0
14.02.2020 20:00:00 9,8 6,0 21 11 42 23 S 1020,7 - 0,0
14.02.2020 19:00:00 9,0 6,4 16 9 36 19 S 1021,0 7 0,0
14.02.2020 18:00:00 9,0 6,4 24 13 42 23 SSW 1020,8 - 0,0
14.02.2020 17:00:00 9,2 6,6 23 13 46 25 SW 1020,8 - 0,0
14.02.2020 16:00:00 9,4 6,5 27 14 48 26 SW 1020,6 7 0,0
14.02.2020 15:00:00 9,3 6,0 25 13 47 25 SSW 1020,6 - 0,0
14.02.2020 14:00:00 9,4 7,2 27 14 45 25 SW 1020,6 - 0,0
14.02.2020 13:00:00 9,5 5,7 23 13 42 23 SSW 1020,8 - 0,0
14.02.2020 12:00:00 8,9 6,2 20 11 39 21 SSW 1021,0 - 0,0
14.02.2020 11:00:00 8,1 4,5 14 8 29 16 S 1021,0 - 0,0
14.02.2020 10:00:00 5,9 3,4 9 5 16 8 SSE 1020,6 - 0,0
14.02.2020 09:00:00 5,5 3,3 8 4 11 6 SSE 1020,0 - 0,0
14.02.2020 08:00:00 5,6 2,9 6 3 15 8 WNW 1019,0 - 0,0
14.02.2020 07:00:00 6,3 3,6 9 5 23 12 WNW 1018,3 10 0,0
14.02.2020 06:00:00 6,8 3,9 13 7 26 14 NW 1017,7 - 0,0
14.02.2020 05:00:00 6,6 3,6 14 8 31 17 WNW 1016,3 - 0,0
14.02.2020 04:00:00 6,8 3,9 18 10 36 20 WNW 1015,4 - 0,0
14.02.2020 03:00:00 7,1 3,5 22 12 43 23 WNW 1014,5 - 0,0
14.02.2020 02:00:00 7,3 4,1 29 15 46 25 WNW 1013,3 - 0,0
14.02.2020 01:00:00 7,6 4,4 30 16 47 26 W 1012,3 10 0,0
14.02.2020 00:00:00 8,0 4,4 33 18 53 29 WNW 1010,6 - 0,0
13.02.2020 23:00:00 8,3 4,7 36 19 61 33 W 1009,5 - 0,0
13.02.2020 22:00:00 8,1 4,9 39 21 61 33 W 1007,8 10 0,0
13.02.2020 21:00:00 8,2 4,8 35 19 49 26 W 1005,2 - 0,0
13.02.2020 20:00:00 8,5 5,6 31 17 54 29 W 1003,3 - 0,0
13.02.2020 19:00:00 8,5 5,4 35 19 52 28 W 1000,8 10 0,0
13.02.2020 18:00:00 8,3 6,1 36 19 63 34 W 998,4 - 0,0
13.02.2020 17:00:00 7,8 5,3 42 23 74 40 WNW 995,8 - 0,0
13.02.2020 16:00:00 8,1 6,9 40 21 70 38 WSW 992,4 10 0,6
13.02.2020 15:00:00 8,4 6,2 38 20 101 55 SSW 993,2 - 0,2
13.02.2020 14:00:00 7,7 6,2 39 21 78 42 SSW 993,9 - 0,8
13.02.2020 13:00:00 8,1 5,7 42 23 77 42 SW 995,0 8 0,2
13.02.2020 12:00:00 8,8 5,4 47 25 78 42 SW 995,7 - 0,2
13.02.2020 11:00:00 7,4 5,9 32 17 59 32 SW 996,4 - 0,2
13.02.2020 10:00:00 6,7 4,7 29 16 57 31 SSW 996,9 12 0,0
13.02.2020 09:00:00 4,7 3,8 19 10 86 47 SW 997,0 - 4,2
13.02.2020 08:00:00 6,6 5,2 43 23 81 44 S 996,2 - 3,1
13.02.2020 07:00:00 5,5 4,3 38 20 68 37 SSE 997,9 8 0,8
13.02.2020 06:00:00 5,4 4,4 28 15 58 31 SSE 1001,9 - 2,4
13.02.2020 05:00:00 5,7 3,7 38 21 66 36 S 1004,7 - 1,6
13.02.2020 04:00:00 6,6 3,7 30 16 52 28 S 1007,3 - 0,0
13.02.2020 03:00:00 6,3 3,5 28 15 55 30 S 1009,6 - 0,0
13.02.2020 02:00:00 6,0 3,0 28 15 49 26 S 1010,7 - 0,0
13.02.2020 01:00:00 6,3 2,6 29 16 51 28 S 1012,3 8 0,0
13.02.2020 00:00:00 6,2 2,6 23 13 39 21 S 1013,9 - 0,0
12.02.2020 23:00:00 6,7 3,8 19 10 41 22 S 1015,1 - 0,0
12.02.2020 22:00:00 7,1 4,2 20 11 43 23 S 1015,8 8 0,0
12.02.2020 21:00:00 7,3 4,4 24 13 46 25 SW 1016,6 - 0,0
12.02.2020 20:00:00 6,4 3,2 12 7 59 32 SW 1017,1 - 0,2
12.02.2020 19:00:00 7,5 2,2 23 12 50 27 WSW 1017,4 - 0,0
12.02.2020 18:00:00 7,5 2,0 33 18 57 31 W 1017,3 - 0,0
12.02.2020 17:00:00 7,7 2,0 35 19 58 31 W 1017,2 - 0,0
12.02.2020 16:00:00 7,6 1,4 35 19 63 34 W 1017,2 - 0,0
12.02.2020 15:00:00 7,7 1,7 36 20 62 33 W 1017,2 - 0,0
12.02.2020 14:00:00 7,4 1,2 41 22 62 34 W 1017,3 - 0,0
12.02.2020 13:00:00 7,0 0,4 41 22 62 34 W 1017,5 12 0,0
12.02.2020 12:00:00 6,8 -0,9 45 24 65 35 W 1017,2 - 0,8
12.02.2020 11:00:00 6,5 1,8 41 22 63 34 W 1016,5 - 0,0
12.02.2020 10:00:00 6,4 2,1 41 22 65 35 W 1016,1 12 0,0
12.02.2020 09:00:00 6,6 1,3 44 24 64 34 W 1015,8 - 0,0
12.02.2020 08:00:00 6,5 1,2 42 23 71 38 W 1015,4 - 0,0
12.02.2020 07:00:00 6,4 1,3 46 25 71 38 W 1014,8 8 0,0

tt = Température de l'air
td = dewpoint
ff = Vitesse du vent
fx = gusts
dd = Direction du vent
ppp = reduced air pressure
vv = visibility
rr = Quantités de précipitations

stations d'obs. à proximité